Погода в Комсомольском

Россия / Республика Бурятия     52°28′44″N   111°05′12″E
темп.,
°C
ветер,
м/с
пор.,
м/с
влажн.,
%
обл.,
%
осадки,
мм/ч
давл.,
гПа
погр.,
м
17 мая, пн
пн1723:00+7з4876100 0.1 1008690
02:00+3зюз229085 0.1 100717
05:00+4з1189100 0.0 100557
08:00+5зюз2590100 2.2 1004464
11:00+9зсз4663100 0.4 10031220
14:00+11сз78415 0.4 10021620
17:00+10сз710348 0.0 10031850
20:00+6сз595292 0.0 1005683
18 мая, вт
вт1823:00+2сз227299 0.0 100829
02:00+1з22765 0.0 100814
05:00−1зсз228432 0.0 101027
08:00+5з583816 0.0 10091969
11:00+8зсз7102520 0.0 10072555
14:00+10сз71122100 0.0 10053104
17:00+10зсз61023100 0.0 10032993
20:00+7з4949100 0.0 1003597
19 мая, ср
ср1923:00+2з287777 0.1 1005210
02:00+3юз2676100 0.1 1004195
05:00+3ююз1176100 0.0 100349
08:00+4ююз3280100 0.3 1003564
11:00+7юз335959 0.1 10011124
14:00+11юз554929 0.1 9981396
17:00+11юз455491 0.0 9971039
20:00+8зюз236873 0.0 99860
20 мая, чт
чт2023:00+4ссв22597 0.0 100227
02:00+3св2356100 0.0 100358
05:00+3всв41139100 0.0 1003370
08:00+4св5945100 0.2 1003451
11:00+2в61088100 1.4 1004587
14:00+3всв5993100 1.9 1004493
17:00+5св6887100 0.1 1002550
20:00+4св6119389 0.1 1002500
21 мая, пт
пт2123:00+3св61388100 0.0 999555
02:00+4св61186100 0.3 997649
05:00+3ссв4986100 0.1 997540
08:00+4ссв3782100 0.1 997733
11:00+3ссз3582100 0.0 999625
14:00+3сз2695100 2.4 1001412
17:00+6ссз357087 0.3 999947
20:00+4ссв3782100 0.3 999368